Bloomington, IN

2:56 PM EDT on October 01, 2016 (GMT -0400)
Monroe County

Weather History for KBMG - November, 2011

Change the Weather History Date:

Thursday, November 10, 2011

  Actual Average Record
Temperature  
Mean Temperature 38 °F 46 °F  
Max Temperature 44 °F 57 °F 73 °F (2006)
Min Temperature 32 °F 36 °F 24 °F (2008)
Degree Days  
Heating Degree Days 27 19  
Month to date heating degree days 139 169  
Since 1 July heating degree days 581 588  
Cooling Degree Days 0 0  
Month to date cooling degree days 0 0  
Year to date cooling degree days 1170 926  
Moisture  
Dew Point 29 °F    
Average Humidity 68    
Maximum Humidity 92    
Minimum Humidity 43    
Precipitation  
Precipitation T in 0.12 in 0.85 in (2002)
Month to date precipitation 0.67 1.38  
Year to date precipitation 47.95 41.45  
Sea Level Pressure  
Sea Level Pressure 30.09 in    
Wind  
Wind Speed 7 mph (West)    
Max Wind Speed 18 mph    
Max Gust Speed 25 mph    
Visibility 10 miles    
Events Snow    
T = Trace of Precipitation, MM = Missing Value Source: NWS Daily Summary

Daily Weather History Graph

Daily Weather History Graph

Search for Another Location

Airport or City:

Trip Planner

Search our weather history database for the weather conditions in past years. The results will help you decide how hot, cold, wet, or windy it might be!

Date:

Astronomy

Nov. 10, 2011 Rise Set
Actual Time 7:23 AM EST 5:36 PM EST
Civil Twilight 6:55 AM EST 6:04 PM EST
Nautical Twilight 6:23 AM EST 6:36 PM EST
Astronomical Twilight 5:52 AM EST 7:08 PM EST
Moon 5:24 PM EST (11/10) 7:15 AM EST (11/10)
Length of Visible Light 11h 09m
Length of Day
10h 12m
Full, 100% of the Moon is Illuminated
Nov 10
Full
Nov 10
Full
Nov 18
Last Quarter
Nov 25
New
Dec 2
First Quarter

Hourly Weather History & Observations

Time (EST) Temp. Windchill Dew Point Humidity Pressure Visibility Wind Dir Wind Speed Gust Speed Precip Events Conditions
12:53 AM 37.0 °F 33.3 °F 32.0 °F 82% 30.10 in 10.0 mi WSW 4.6 mph - N/A   Clear
1:53 AM 34.0 °F 29.8 °F 30.9 °F 89% 30.10 in 10.0 mi SW 4.6 mph - N/A   Clear
2:53 AM 34.0 °F 29.8 °F 30.9 °F 89% 30.10 in 10.0 mi WSW 4.6 mph - N/A   Clear
4:53 AM 35.1 °F 29.3 °F 30.9 °F 85% 30.08 in 10.0 mi SW 6.9 mph - N/A   Clear
5:53 AM 33.1 °F 26.9 °F 30.0 °F 89% 30.09 in 10.0 mi WSW 6.9 mph - N/A   Clear
6:53 AM 32.0 °F 26.4 °F 30.0 °F 92% 30.08 in 10.0 mi SW 5.8 mph - N/A   Clear
7:53 AM 34.0 °F 28.0 °F 30.0 °F 85% 30.10 in 10.0 mi West 6.9 mph - N/A   Clear
8:53 AM 36.0 °F 30.3 °F 30.9 °F 82% 30.10 in 10.0 mi WSW 6.9 mph - N/A   Clear
9:53 AM 39.0 °F 33.4 °F 30.0 °F 70% 30.09 in 10.0 mi West 8.1 mph - N/A   Clear
10:53 AM 41.0 °F 35.2 °F 28.9 °F 62% 30.08 in 10.0 mi West 9.2 mph - N/A   Clear
11:53 AM 42.1 °F 35.7 °F 25.0 °F 51% 30.08 in 10.0 mi WNW 11.5 mph 23.0 mph N/A   Clear
1:53 PM 41.0 °F 33.5 °F 26.1 °F 55% 30.06 in 8.0 mi West 13.8 mph 24.2 mph N/A   Overcast
2:53 PM 41.0 °F 35.2 °F 25.0 °F 53% 30.07 in 10.0 mi WNW 9.2 mph 23.0 mph N/A   Overcast
3:53 PM 39.0 °F 31.8 °F 28.0 °F 65% 30.08 in 10.0 mi NW 11.5 mph 16.1 mph N/A   Overcast
4:53 PM 39.0 °F 35.7 °F 28.0 °F 65% 30.07 in 10.0 mi West 4.6 mph - N/A   Overcast
5:29 PM 37.4 °F 30.3 °F 28.4 °F 70% 30.07 in 2.5 mi WNW 10.4 mph 20.7 mph 0.00 in Snow Light Snow
5:36 PM 35.6 °F 30.7 °F 30.2 °F 81% 30.07 in 8.0 mi WNW 5.8 mph 20.7 mph 0.00 in Snow Light Snow
5:51 PM 35.6 °F 30.7 °F 30.2 °F 81% 30.07 in 9.0 mi WNW 5.8 mph - 0.00 in   Overcast
5:53 PM 36.0 °F 32.1 °F 30.0 °F 79% 30.09 in 10.0 mi NW 4.6 mph - 0.00 in   Overcast
6:06 PM 35.6 °F 30.7 °F 30.2 °F 81% 30.07 in 9.0 mi Variable 5.8 mph - 0.00 in   Overcast
6:53 PM 36.0 °F 33.3 °F 30.0 °F 79% 30.09 in 10.0 mi WSW 3.5 mph - 0.00 in   Overcast
7:53 PM 36.0 °F 30.3 °F 28.0 °F 73% 30.09 in 10.0 mi West 6.9 mph - N/A   Partly Cloudy
8:53 PM 35.1 °F 29.3 °F 27.0 °F 72% 30.10 in 10.0 mi WNW 6.9 mph - N/A   Clear
9:53 PM 34.0 °F 28.0 °F 27.0 °F 75% 30.10 in 10.0 mi West 6.9 mph - N/A   Clear
10:53 PM 33.1 °F 27.7 °F 26.1 °F 75% 30.11 in 10.0 mi West 5.8 mph - N/A   Clear
11:53 PM 32.0 °F 26.4 °F 26.1 °F 79% 30.10 in 10.0 mi West 5.8 mph - N/A   Clear